sat.trackr.live / text

‹ back to catalog

STARLINK-31067

NORAD 58608 · 2023-200V

PAYLOAD ACTIVE UNKNOWN

§ Identity

Operator
Country
US
Launch date
2023-12-19
Launch site
AFETR
Launch vehicle
Mass (kg)
RCS (m²)

Purposes: comms

External: N2YO · Heavens-Above · Gunter

§ Orbital elements

Epoch: 2026-09-19T23:25:28.239456Z

Period
94.27 min
Inclination
43.0008°
Eccentricity
0.0001346
Mean motion
15.27574498 rev/d
Perigee alt
482.1 km
Apogee alt
484.0 km
Semi-major
6,861.2 km
B*
5.7158e-5
RAAN
151.6845°
Arg perigee
264.6205°
Mean anomaly
95.4493°
Rev number
15,332

§ Raw data

STARLINK-310671 58608U 23200V   26262.97602129  .00001311  00000+0  57158-4 0  99932 58608  43.0008 151.6845 0001346 264.6205  95.4493 15.27574498153323

JSON: /api/v1/satellites/58608 · /tle

For live sub-satellite position, see the globe view (requires WebGL).

§ Visibility from observer

Set your observer location to see the next 7 days of passes ≥ 10°. The values pass through the URL so the page stays shareable.

No JS? Fill the form by hand. The geolocation button needs JavaScript.